Location: Chateh
(58.6667°N, 118.6000°W)
Time: 08:30:58
(UTC+00:00)

O/OREOS (USA 219) - Pass Details

Date: 07 December 2023
Orbit: 621 x 646 km, 72.0° (Epoch: 22 May)

Event Time Altitude Azimuth Distance (km) Brightness Sun altitude
Exits shadow 15:17:12 - 327° (NNW) 2,192 ? -8.2°
Reaches altitude 10° 15:17:40 10° 328° (NNW) 2,010 ? -8.1°
Maximum altitude 15:22:08 61° 49° (NE) 716 ? -7.6°
Drops below altitude 10° 15:26:36 10° 130° (SE) 2,011 ? -7.1°
Sets 15:28:54 0° 134° (SE) 2,919 ? -6.9°
